Regional Weather Roundup
Issued by NWS

Home | Current Version | Previous Version | Graphics & Text | Print | Product List | Glossary On
Versions: 1 2 3 4 5 6 7 8 9 10 11 12 13 14 15 16 17 18 19 20 21 22 23 24 25 26 27 28 29 30 31 32 33 34 35 36 37 38 39 40 41 42 43 44 45 46 47 48 49 50
000
ASUS43 KBIS 022020
RWRND

NORTH DAKOTA REGIONAL WEATHER ROUNDUP
NATIONAL WEATHER SERVICE BISMARCK ND
300 PM CDT TUE SEP 02 2014

NOTE: "FAIR" INDICATES FEW OR NO CLOUDS BELOW 12,000 FEET WITH NO
SIGNIFICANT WEATHER AND/OR OBSTRUCTIONS TO VISIBILITY.


NDZ001>003-009>011-017-022100-
NORTHWEST NORTH DAKOTA

CITY           SKY/WX    TMP DP  RH WIND       PRES   REMARKS
WILLISTON      MOSUNNY   75  45  34 NW8       29.77S
MINOT          SUNNY     76  47  35 W15G24    29.72S
MINOT AFB      SUNNY     74  50  43 NW16G25   29.72R
$$

NDZ018>021-031>035-040>046-022100-
SOUTHWEST NORTH DAKOTA

CITY           SKY/WX    TMP DP  RH WIND       PRES   REMARKS
BISMARCK       PTSUNNY   78  50  37 W10       29.79S
DICKINSON      PTSUNNY   74  43  32 W22       29.82S
GARRISON         N/A     75  45  34 W17G24    29.76S
HETTINGER ARPT MOSUNNY   74  45  35 W13G22    29.85F
$$

NDZ004>008-012>016-024-026-027-054-022100-
NORTHEAST NORTH DAKOTA

CITY           SKY/WX    TMP DP  RH WIND       PRES   REMARKS
GRAND FORKS    MOSUNNY   74  54  49 S13       29.72F
GRND FRKS AFB  MOSUNNY   75  56  53 SW14      29.73F
DEVILS LAKE    SUNNY     75  52  43 W16G22    29.69F
$$

NDZ022-023-025-028>030-036>039-047>053-022100-
SOUTHEAST NORTH DAKOTA

CITY           SKY/WX    TMP DP  RH WIND       PRES   REMARKS
FARGO          SUNNY     79  53  40 SW16      29.77F
JAMESTOWN      MOSUNNY   78  52  40 SW13      29.76F
$$




USA.gov is the U.S. government's official web portal to all federal, state and local government web resources and services.